Voltar ao catálogo

STARLINK-32856

AtivoComunicaçõesVLEO
NORAD 62819·PAYLOAD·🇺🇸 United States

Lançado Jan 24, 2025 de Vandenberg Space Force Base

Loading…

Próximas Passagens (próximas 24 horas)

TLE

AtualizadoSource: CelesTrak SupGP

Época: Sep 14, 2026, 22:30 UTC

1 62819C 25018P   26257.93798611 -.00051849  00000+0 -15319-2 0  2574
2 62819  53.1560 147.6151 0001343  84.3144 314.0960 15.34416652    19

Acompanhe STARLINK-32856 em tempo real com AllMySat

Download on the App Store